OPS 4682 DEB, 38453

Orbit data source: Space-Track

OPS 4682 DEB, 38453 is space debris in LEO originally from a launch on Sat, 03 Apr 1965 UTC launched from the Air Force Western Test Range (AFWTR). Debris objects in space refer to the collection of defunct objects orbiting the Earth. Examples of debris include non-operational satellites, rocket bodies, and fragments generated from explosions, collisions, or faulty payload assembly.

Loading next visibility...
Identifier
38453, 1965-027FJ
Orbit
LEO
Country
Flag of USUS
Related business
Manufacturer
Unknown
Mission
Spacecraft
Bus & Motor
Unknown
Mass
Unknown
Launch date (UTC)
1965-04-03 (61 years ago)
Launch vehicle
Unknown
Launch site
Air Force Western Test Range (AFWTR)
Object type
Payload
Rocket body
Debris
Shape & HBR
Unknown shape, 0.1 m
Radar Cross Section
Small (<0.1 m²)

Expand to show TLE details & history
Last TLE update: 1 day ago

TLE from 1 day ago
0 OPS 4682 DEB
1 38453U 65027FJ  25340.32525433  .00000152  00000-0  51755-3 0  9998
2 38453  90.2392   2.3395 0026129  12.8929 347.2853 12.94819003550035
Epoch: 2025-12-06T07:48Z
TLE epoch observation values (Epoch: 2025-12-06T07:48:21.974Z)
Latitude
0.00003°
Longitude
169.89333°
Altitude
1,265.803 km
Speed
7.232 km/s
True Right ascension
00h 09m 21s
True Declination
0° 00' 00"
Sunlit
Object was in daylight at epoch
Visualization orbit readout
Latitude
Unknown
Longitude
Unknown
Altitude
Unknown
Speed
Unknown
Apparent Right ascension
Unknown
Apparent Declination
Unknown
Sunlit
N/A
Visualization observer readout
Local Sidereal Time
07:41:11
Azimuth
Unknown
Elevation
Unknown
Doppler factor
Unknown
Orbital elements
Apogee altitude
1,299.597 km
Perigee altitude
1,259.58 km
Semi-major axis
7,657.725 km
Eccentricity
0.00261
Inclination
90.2392°
RAAN
2.3395°
Arg. of periapsis
12.8929°
True anomaly
347.21919°
Mean anomaly
347.2853°
Eccentric anomaly
347.25227°
Mean motion
3.23887 °/min
Orbital period
111.15 mins
BSTAR
0.00051755
Loading maneuver chart data...
Computing Atmospheric mass density...
Loading historical data...
Loading historical data...
Loading historical data...
Loading historical data...
Loading historical data...
Loading historical data...
Loading historical data...

Documentation

Showing up to 5 results
|